{"data":{"norad_id":69900,"epoch":"2026-09-19T13:16:33.860352Z","epoch_age_seconds":99591,"freshness":"FRESH","line1":"1 69900U 26156AH  26262.55316968  .00001581  00000+0  16400-3 0  9993","line2":"2 69900  97.7481 161.7332 0002874 247.3403 112.7511 14.91381102 11065","mean_motion":14.91381102,"eccentricity":0.0002874,"inclination_deg":97.7481,"raan_deg":161.7332,"arg_perigee_deg":247.3403,"mean_anomaly_deg":112.7511,"bstar":0.000164,"rev_number":1106,"period_min":96.554797299557,"perigee_km":591.62449362679,"apogee_km":595.63186425165,"semimajor_km":6971.7651789392,"source":"CELESTRAK","updated_at":"2026-09-20T09:00:25.171294Z"}}